sat.trackr.live / text

‹ back to catalog

STARLINK-34078

NORAD 64012 · 2025-101U

PAYLOAD ACTIVE UNKNOWN

§ Identity

Operator
Country
US
Launch date
2025-05-14
Launch site
AFETR
Launch vehicle
Mass (kg)
RCS (m²)

Purposes: comms

External: N2YO · Heavens-Above · Gunter

§ Orbital elements

Epoch: 2026-09-20T12:14:32.997696Z

Period
94.27 min
Inclination
43.0026°
Eccentricity
0.0001731
Mean motion
15.27577362 rev/d
Perigee alt
481.9 km
Apogee alt
484.2 km
Semi-major
6,861.2 km
B*
7.5297e-5
RAAN
337.4445°
Arg perigee
279.9061°
Mean anomaly
80.1595°
Rev number
7,685

§ Raw data

STARLINK-340781 64012U 25101U   26263.51010414  .00001810  00000+0  75297-4 0  99902 64012  43.0026 337.4445 0001731 279.9061  80.1595 15.27577362 76855

JSON: /api/v1/satellites/64012 · /tle

For live sub-satellite position, see the globe view (requires WebGL).

§ Visibility from observer

Set your observer location to see the next 7 days of passes ≥ 10°. The values pass through the URL so the page stays shareable.

No JS? Fill the form by hand. The geolocation button needs JavaScript.